Temp_Advection
nan nan nan nan nan nan nan nan nan nan nan nan nan nan nan nan nan nan nan nan nan nan nan nan nan nan nan nan nan nan nan nan nan nan nan nan nan nan nan nan nan nan nan
nan 0 0 0 0 0 0 0 -0 -0 -0 0 0 0 0 0 0 0 -0 -0 -1 -0 0 0 0 0 0 0 0 0 -0 -0 0 0 0 -0 -0 -0 -0 0 -0 -0 nan
nan 1 0 1 1 0 -0 -0 -0 0 0 0 -0 0 0 -0 0 0 0 0 0 -0 -0 -0 -0 0 0 0 0 0 -0 0 0 0 0 -0 0 -0 -0 -0 -0 -0 nan
nan 0 0 0 0 -0 -1 -0 0 0 0 1 0 0 0 -0 0 0 -0 -1 -0 -0 -0 0 -0 -0 0 0 0 0 0 0 0 0 0 0 0 0 -0 -0 -0 -0 nan
nan 0 0 0 0 -0 -1 0 0 0 0 0 -0 -1 -0 -0 0 1 1 1 0 -1 -1 -0 -0 -0 0 0 0 0 0 0 0 0 0 -0 -0 -0 -0 -0 -0 -0 nan
nan 0 0 0 0 -0 0 0 -0 -0 -0 0 -0 -0 -0 -0 -0 1 1 -0 1 1 -1 -0 -0 0 0 0 -0 -0 0 0 0 -0 -0 -0 -0 0 -0 -0 0 0 nan
nan 0 0 0 0 0 -0 -0 -0 -0 -0 -0 -0 0 -0 -0 -1 -1 0 2 1 0 0 -0 0 -0 -1 -0 1 1 0 0 -0 -0 -0 -0 0 -0 -0 0 0 -0 nan
nan -0 0 0 0 -1 -1 -0 -0 -0 -0 0 0 0 0 -0 -0 -0 0 1 2 2 0 0 -1 -1 -0 0 0 -0 -0 0 0 0 -0 -0 0 0 -0 -0 -0 -0 nan
nan 0 0 0 -0 -0 0 0 0 -0 -0 0 0 0 0 -0 0 -0 -1 -1 0 -0 1 -0 -1 -0 -0 -0 0 0 -0 -0 0 0 0 0 0 0 0 0 -0 -0 nan
nan 0 0 0 0 0 -0 -0 -0 -0 -0 -0 -0 -0 0 -0 -0 0 1 1 -0 -1 -1 -1 -0 -0 0 1 0 -0 -0 0 0 0 0 -0 -0 1 0 0 0 0 nan
nan 0 0 0 0 -0 0 0 -1 -1 -0 -0 -0 -0 -0 0 0 0 1 1 -0 -1 -0 -0 -1 -0 1 1 1 -1 -1 0 0 0 0 1 1 -0 0 0 0 0 nan
nan 0 -0 -0 1 1 -0 -1 -1 -0 0 -0 0 0 -0 0 0 0 -0 0 0 -0 -0 1 1 -0 1 0 -0 0 0 0 0 1 0 0 0 0 1 1 0 0 nan
nan -1 -1 0 0 1 1 -0 -1 -0 1 1 0 -1 -1 -0 -0 0 0 -0 -0 -0 -0 0 1 1 0 1 0 -0 -0 1 1 -0 -0 0 0 0 0 0 0 0 nan
nan -1 -2 -2 -2 -0 1 1 0 -1 -1 -2 -0 0 -0 -0 -0 0 -0 -0 0 -0 -1 -1 0 1 1 0 -0 -0 0 1 1 0 0 0 0 1 1 0 1 0 nan
nan -0 -0 -0 -1 -1 -1 -1 -0 -0 -0 -1 -1 -1 -1 -0 -0 -0 0 1 1 1 -0 -1 -1 0 2 1 -1 -1 0 1 0 0 0 0 -0 1 1 0 0 -0 nan
nan -0 -1 -1 -1 -1 -1 -1 -1 -1 -0 0 -0 -1 -0 0 -1 -0 1 1 -0 -0 0 1 -0 -1 1 1 0 -0 0 0 -0 -0 1 1 1 1 0 0 0 0 nan
nan -0 -0 -1 -1 -1 -1 -1 -1 -1 -1 -0 -0 -1 -1 -0 -1 -0 0 0 -0 -0 0 0 2 1 -0 0 1 0 -0 -0 0 1 1 1 1 0 -0 0 0 0 nan
nan 0 -0 -0 -1 -1 -1 -1 -1 -1 -1 -1 -1 -1 -1 -0 0 0 1 0 -0 -0 -0 -0 -0 1 2 0 0 0 0 0 1 1 1 0 0 0 0 0 0 0 nan
nan 0 -0 -0 -0 -1 -1 -0 -0 -0 -2 -2 -1 -0 -0 -0 -0 -0 1 1 1 -0 -1 -1 -1 0 1 1 1 1 0 0 0 0 0 0 0 0 0 0 0 0 nan
nan -0 -0 -0 -0 -0 -0 -1 -1 -1 -1 -1 -1 -1 -0 -1 -1 -1 -1 0 1 1 1 -1 -2 0 1 1 1 1 0 0 0 0 0 0 0 -0 -0 0 0 0 nan
nan -1 -1 -1 -0 -0 -0 -0 -1 -0 -0 -1 -1 -0 -1 -1 -0 -1 -0 -1 -0 1 0 1 1 1 0 0 0 0 0 0 0 0 1 0 0 0 0 0 0 0 nan
nan -0 -0 -1 -1 -1 -1 -0 0 -0 -1 -1 -1 -1 -1 -1 -0 1 0 -1 -1 0 1 0 0 2 1 0 1 1 -0 1 1 0 0 0 1 1 1 1 1 0 nan
nan -1 -1 -0 -0 -0 -0 -1 -0 -0 -1 -1 -1 -1 -1 0 0 -0 -0 -1 1 1 1 1 1 1 -0 1 1 0 1 1 1 1 1 0 1 1 1 1 0 0 nan
nan 1 -1 -1 -1 -2 -2 -2 -1 -1 -0 -1 -1 -1 -1 -0 1 0 -1 1 1 -1 -1 -0 1 0 1 1 1 1 1 0 0 1 0 1 1 0 0 0 0 0 nan
nan -0 -0 -1 -1 -1 -1 -0 -1 -2 -2 -1 0 -0 -0 -0 -1 -0 1 1 0 -2 -2 1 1 1 1 1 1 0 1 1 1 1 0 0 0 0 0 0 0 0 nan
nan nan nan nan nan nan nan nan nan nan nan nan nan nan nan nan nan nan nan nan nan nan nan nan nan nan nan nan nan nan nan nan nan nan nan nan nan nan nan nan nan nan nan
Wind_Speed
18 22 21 20 19 21 23 28 25 27 23 21 22 25 24 23 21 21 23 22 19 21 20 19 20 17 17 14 15 9 12 15 14 9 10 10 11 5 1 3 1 9 9
19 18 21 21 19 20 20 21 21 20 19 23 23 24 24 22 21 21 23 24 22 22 24 22 22 18 18 16 15 13 17 16 12 12 11 12 12 9 6 5 3 3 7
18 17 20 20 20 23 24 21 17 16 16 16 19 20 23 21 20 22 25 26 27 25 25 24 22 20 20 20 20 18 19 18 16 13 11 10 11 10 8 6 6 7 7
9 10 15 19 19 22 24 23 16 11 17 21 19 18 21 19 17 19 22 25 27 26 26 27 25 25 24 23 22 20 18 17 13 14 12 13 12 12 12 10 9 10 9
8 9 14 18 19 18 14 14 10 13 15 17 15 17 20 18 18 24 23 22 23 28 26 26 26 26 25 22 21 20 19 16 15 14 15 14 13 12 17 14 10 10 10
8 12 10 15 11 12 16 17 19 23 22 16 20 22 23 21 18 23 26 26 21 20 26 25 24 24 24 22 22 24 19 18 16 15 14 16 14 16 17 17 17 16 18
6 5 9 15 16 16 18 15 18 13 18 17 21 22 21 23 23 21 26 26 25 20 21 24 23 22 18 19 18 19 23 26 22 17 19 18 16 17 18 19 19 17 15
3 5 6 10 16 15 14 11 11 9 7 6 10 14 18 19 17 18 15 33 36 31 25 25 26 25 24 18 21 21 18 21 25 25 23 21 19 19 16 20 23 24 23
3 3 5 4 7 8 11 18 14 10 8 6 8 8 4 5 7 10 15 14 11 26 26 27 28 26 25 22 23 21 19 17 16 13 15 15 16 21 20 20 20 20 23
7 7 8 10 9 12 13 13 14 12 14 15 14 12 11 11 10 10 10 12 21 24 24 27 24 26 28 28 25 24 23 21 17 16 17 22 20 19 20 23 23 19 19
11 14 15 13 13 16 18 18 18 19 16 17 17 15 14 13 13 13 14 20 24 24 22 22 20 22 25 23 27 28 26 20 20 18 17 15 20 21 22 23 26 28 28
19 21 23 22 21 19 18 21 23 24 24 23 21 20 18 17 15 14 14 14 17 20 22 22 25 30 32 24 22 24 25 23 19 22 21 20 22 26 25 25 24 24 24
24 25 25 27 27 28 26 28 31 31 30 30 26 24 23 20 19 21 20 19 18 15 20 25 28 27 28 30 27 28 25 25 25 27 26 21 22 25 26 24 25 25 26
22 24 26 28 30 32 33 32 28 32 33 35 36 34 30 25 24 23 25 24 21 19 17 21 24 27 25 27 26 28 29 29 28 28 26 22 26 27 27 24 20 18 16
23 26 27 27 28 29 30 32 34 37 31 35 36 35 31 30 30 30 31 26 20 16 21 24 23 25 27 21 22 22 24 24 27 27 23 26 27 21 18 16 15 16 14
25 25 26 27 27 27 28 28 27 29 32 36 39 39 38 35 28 25 23 21 23 23 24 26 28 24 23 21 20 18 19 20 23 24 25 25 21 19 16 16 15 15 13
30 31 32 31 30 30 29 32 35 32 35 39 37 35 41 45 50 48 46 43 37 33 32 29 30 28 24 20 19 16 17 17 17 19 20 20 20 19 17 18 14 9 10
30 29 30 34 35 35 37 37 33 36 37 36 32 31 34 36 43 46 49 48 46 43 38 36 32 32 31 25 25 24 25 24 23 23 23 23 20 17 14 11 10 10 12
38 38 35 32 34 36 35 34 36 36 34 30 27 28 30 31 35 37 47 49 52 50 44 40 35 35 35 28 29 33 34 32 29 27 26 20 16 15 12 13 16 16 12
37 40 39 39 39 39 38 38 35 34 34 34 33 33 33 36 37 36 40 42 50 50 43 34 37 33 28 27 24 25 24 24 29 24 19 19 18 16 13 14 13 14 15
34 35 33 35 36 36 36 38 41 41 36 33 33 34 36 34 39 39 40 39 40 43 44 41 33 30 28 24 26 24 27 30 22 21 22 20 19 15 16 18 14 15 16
35 38 40 42 44 44 43 44 40 36 35 39 36 33 30 31 33 32 34 34 38 40 40 39 35 30 33 26 28 27 28 24 23 21 23 21 20 18 16 19 15 14 13
40 44 47 47 46 46 44 42 41 41 41 43 43 38 30 30 25 21 26 32 31 33 31 31 23 27 27 28 25 25 27 26 25 23 21 18 18 18 17 14 12 11 13
49 48 49 48 48 50 53 53 47 43 43 41 37 37 40 41 35 30 25 18 27 36 21 20 21 24 24 24 27 26 24 26 24 22 20 20 20 17 16 14 13 12 10
41 38 40 42 43 43 41 40 42 38 40 34 38 31 28 25 27 28 21 20 30 29 26 22 24 27 29 28 30 30 29 27 27 23 23 21 18 15 12 12 9 9 9
37 37 38 39 40 40 40 38 34 34 32 34 39 42 35 29 31 25 18 15 26 27 28 28 28 23 30 31 32 32 25 22 22 21 18 16 19 17 15 13 13 8 7
Wind_Direction
216 219 235 236 240 244 230 224 227 226 229 234 247 254 260 266 264 263 263 268 268 269 267 264 263 272 277 277 274 259 254 260 261 264 241 239 250 266 282 97 118 231 235
224 220 224 232 228 237 246 233 235 243 246 248 255 260 263 263 264 266 267 267 269 264 269 269 272 272 271 269 260 256 252 272 261 258 244 243 234 246 254 254 200 191 181
226 223 216 224 224 225 230 238 235 253 264 268 265 268 267 271 272 270 268 266 269 270 270 272 271 270 267 265 274 268 252 259 265 259 240 252 225 230 248 228 210 190 209
220 214 221 222 226 241 233 246 227 253 272 289 245 264 264 269 276 276 273 272 268 266 268 268 268 267 267 267 269 269 263 258 257 253 250 248 231 234 249 235 231 239 217
201 214 224 221 230 241 248 226 250 270 266 260 265 269 267 279 283 285 274 267 267 274 269 268 269 267 266 266 265 265 264 254 250 254 252 250 255 229 243 239 240 261 263
232 213 229 252 234 237 241 248 257 262 269 265 266 269 274 276 283 270 295 282 266 265 271 272 272 273 264 259 259 268 259 255 249 238 255 247 249 255 243 247 248 248 253
222 234 250 226 241 240 231 242 255 258 268 269 270 273 281 281 267 278 271 276 294 269 264 271 273 267 273 273 271 266 255 245 249 251 245 239 245 250 245 241 242 245 252
278 270 289 214 217 228 241 245 252 248 278 287 298 305 283 287 289 290 280 243 269 275 268 265 264 264 257 264 254 253 265 252 249 252 252 254 258 254 257 244 249 246 250
268 270 302 279 248 240 255 258 264 277 238 237 263 296 340 324 358 29 30 80 263 285 273 268 265 261 261 250 247 246 256 257 256 269 262 262 266 248 251 258 262 255 257
279 267 251 249 241 274 282 279 266 257 256 262 267 268 277 293 302 304 290 255 266 284 280 270 269 265 261 254 247 244 247 249 252 249 254 256 262 260 254 249 252 249 249
249 252 252 255 266 263 254 252 256 260 254 250 254 260 265 275 285 293 286 276 273 269 259 268 277 281 275 267 268 257 250 249 249 250 252 266 264 268 265 261 254 255 255
268 266 272 276 271 264 268 267 260 260 261 257 255 259 263 272 270 256 275 279 279 277 281 277 256 255 263 261 253 250 253 253 251 246 247 250 253 263 265 262 264 264 259
277 275 272 270 267 263 264 260 261 264 259 260 262 263 264 268 263 259 243 258 278 288 305 293 282 276 275 275 266 260 251 248 243 244 252 250 255 260 267 269 265 257 260
280 281 284 279 273 269 262 255 263 262 254 259 261 265 265 254 256 267 243 256 266 277 291 306 303 293 281 277 272 261 254 243 240 243 252 254 259 265 267 271 270 251 250
282 280 280 279 279 278 277 273 267 253 257 256 251 252 253 255 251 248 259 250 255 266 272 287 296 298 287 278 274 259 262 253 235 235 234 244 257 258 258 246 243 243 237
288 288 286 284 282 279 276 276 275 276 271 257 249 248 249 251 256 248 245 227 235 261 269 272 278 284 277 269 265 257 259 242 229 230 235 241 241 235 231 233 243 229 256
287 286 283 281 282 279 278 275 270 273 267 264 264 260 256 255 260 262 264 264 267 266 268 269 272 271 273 251 246 225 231 231 234 237 237 234 229 231 231 245 236 212 229
287 283 283 285 282 277 274 268 274 273 271 270 267 268 269 262 257 258 258 260 261 262 262 265 267 272 269 259 245 231 226 231 230 229 225 221 232 231 210 185 197 198 208
286 283 281 280 279 277 277 269 272 274 274 269 269 264 267 268 266 263 255 255 257 258 259 259 263 265 266 261 243 242 248 226 236 227 225 228 211 188 185 206 200 195 199
284 281 280 281 277 273 272 268 268 271 274 274 270 270 268 270 271 270 264 260 255 254 252 247 260 264 267 252 242 234 226 217 214 216 215 193 187 190 192 195 194 203 179
284 284 281 277 273 272 269 266 266 266 260 267 272 267 263 264 257 264 270 267 263 257 253 252 241 254 260 244 230 225 214 211 212 201 184 185 186 182 191 192 185 168 177
285 282 280 277 274 272 268 264 263 263 263 262 261 267 271 269 273 264 263 270 272 266 249 243 245 243 244 238 221 212 207 203 184 181 184 189 183 187 187 185 182 197 210
295 291 288 285 279 275 271 268 268 262 259 260 260 257 260 262 268 275 272 266 251 237 235 223 233 232 230 224 217 208 209 183 183 183 179 176 176 186 187 182 183 181 186
297 289 283 279 277 274 272 269 266 263 259 257 253 255 256 261 272 273 266 270 270 259 248 218 216 216 215 196 181 181 180 174 174 175 177 178 186 191 186 184 171 191 218
307 300 293 287 282 277 270 265 268 260 248 243 243 250 258 272 270 268 261 265 220 255 230 204 205 197 184 179 172 174 181 186 185 185 187 188 179 169 174 167 184 167 173
313 309 304 298 290 280 272 267 261 258 254 252 247 253 252 264 264 248 217 208 222 216 204 201 197 190 181 178 180 182 182 185 187 181 181 176 166 167 163 191 176 173 181
Height
1545 1548 1548 1550 1552 1552 1553 1555 1558 1560 1563 1562 1566 1567 1566 1565 1565 1566 1568 1569 1569 1568 1569 1570 1569 1568 1568 1567 1567 1566 1566 1566 1565 1565 1564 1564 1564 1563 1562 1561 1563 1564 1564
1544 1544 1546 1547 1548 1548 1548 1550 1553 1557 1560 1563 1563 1564 1565 1564 1561 1562 1564 1565 1566 1565 1565 1566 1564 1565 1564 1565 1564 1563 1562 1562 1561 1560 1561 1561 1562 1561 1561 1561 1560 1563 1563
1541 1542 1542 1543 1544 1545 1546 1549 1553 1554 1553 1558 1556 1556 1561 1558 1558 1556 1559 1559 1560 1561 1561 1560 1561 1561 1559 1560 1560 1559 1557 1557 1558 1558 1559 1559 1559 1558 1558 1559 1559 1559 1562
1539 1539 1539 1540 1541 1541 1544 1546 1550 1551 1549 1546 1542 1553 1555 1555 1553 1552 1553 1555 1554 1554 1556 1556 1556 1556 1555 1556 1556 1555 1555 1555 1555 1556 1556 1557 1557 1556 1556 1556 1556 1556 1556
1538 1538 1537 1538 1539 1539 1541 1544 1549 1549 1546 1545 1540 1547 1549 1548 1545 1547 1546 1547 1548 1550 1549 1550 1552 1552 1551 1551 1552 1551 1552 1552 1553 1554 1555 1556 1556 1556 1555 1555 1554 1555 1555
1536 1536 1536 1534 1534 1535 1540 1543 1544 1544 1542 1542 1543 1546 1546 1541 1539 1542 1543 1544 1543 1544 1546 1546 1547 1548 1547 1545 1546 1547 1549 1549 1551 1551 1551 1552 1552 1553 1554 1554 1553 1552 1551
1536 1535 1533 1532 1532 1533 1535 1536 1537 1538 1539 1540 1539 1538 1537 1534 1535 1534 1532 1539 1540 1537 1539 1541 1541 1542 1541 1540 1542 1545 1546 1545 1546 1547 1546 1547 1548 1549 1550 1550 1551 1550 1549
1535 1533 1529 1528 1530 1530 1533 1535 1533 1534 1534 1534 1534 1533 1531 1530 1529 1525 1521 1527 1531 1536 1536 1536 1537 1536 1536 1536 1537 1538 1539 1539 1540 1541 1541 1542 1544 1545 1545 1546 1546 1546 1545
1533 1533 1531 1530 1530 1527 1530 1531 1529 1529 1529 1529 1530 1529 1529 1529 1527 1524 1522 1524 1537 1530 1531 1531 1531 1529 1529 1530 1528 1529 1530 1531 1534 1535 1537 1538 1539 1540 1541 1540 1540 1540 1540
1532 1531 1530 1529 1528 1527 1527 1527 1526 1526 1525 1525 1525 1526 1525 1524 1523 1522 1522 1527 1526 1525 1527 1525 1525 1524 1519 1521 1525 1522 1520 1522 1526 1529 1530 1531 1532 1534 1535 1535 1535 1535 1536
1526 1526 1526 1526 1523 1523 1524 1523 1522 1521 1522 1521 1521 1522 1521 1520 1520 1520 1519 1517 1518 1519 1520 1521 1520 1516 1514 1519 1511 1520 1518 1515 1519 1522 1522 1525 1528 1529 1529 1528 1528 1530 1530
1523 1523 1522 1520 1519 1519 1520 1518 1518 1516 1515 1515 1515 1515 1515 1515 1516 1516 1516 1516 1515 1514 1514 1513 1512 1508 1504 1511 1515 1515 1511 1512 1515 1518 1518 1515 1519 1522 1523 1522 1522 1521 1522
1517 1516 1515 1514 1513 1512 1511 1511 1511 1510 1509 1508 1508 1507 1508 1509 1509 1510 1511 1512 1513 1511 1509 1507 1505 1502 1498 1496 1497 1499 1502 1505 1508 1510 1511 1511 1513 1513 1515 1515 1515 1514 1515
1509 1508 1507 1506 1504 1503 1502 1502 1502 1501 1501 1500 1499 1499 1500 1501 1501 1500 1502 1504 1504 1503 1502 1500 1497 1494 1493 1493 1492 1493 1495 1497 1500 1502 1504 1506 1507 1507 1508 1508 1509 1508 1511
1503 1502 1500 1499 1497 1495 1494 1493 1492 1492 1493 1492 1492 1493 1494 1493 1494 1495 1493 1494 1494 1493 1492 1491 1491 1488 1487 1489 1489 1489 1489 1490 1492 1495 1498 1498 1499 1501 1502 1503 1504 1505 1505
1496 1494 1493 1492 1490 1488 1486 1484 1483 1482 1482 1483 1483 1484 1485 1484 1485 1486 1487 1487 1487 1487 1487 1487 1485 1483 1482 1483 1483 1483 1483 1483 1485 1489 1490 1491 1493 1494 1496 1497 1500 1501 1502
1489 1487 1484 1483 1481 1479 1477 1476 1473 1472 1471 1471 1471 1473 1474 1475 1474 1476 1478 1479 1479 1480 1480 1481 1478 1476 1475 1475 1477 1479 1479 1479 1481 1483 1484 1485 1487 1489 1490 1492 1494 1496 1498
1480 1478 1476 1474 1471 1469 1467 1465 1465 1463 1462 1461 1462 1462 1462 1464 1464 1465 1466 1468 1467 1468 1469 1470 1471 1469 1467 1468 1470 1472 1474 1475 1476 1478 1480 1481 1483 1484 1486 1488 1490 1493 1494
1472 1469 1467 1464 1462 1460 1457 1455 1454 1453 1453 1450 1451 1451 1453 1453 1453 1452 1452 1454 1455 1456 1458 1460 1461 1461 1458 1459 1461 1462 1464 1466 1469 1471 1474 1476 1479 1481 1483 1487 1488 1490 1491
1462 1459 1457 1453 1450 1447 1446 1445 1444 1443 1442 1443 1443 1443 1445 1443 1442 1441 1441 1442 1443 1445 1448 1450 1450 1451 1450 1450 1451 1454 1455 1458 1462 1464 1468 1472 1475 1479 1482 1484 1485 1488 1490
1451 1447 1446 1443 1439 1437 1435 1433 1432 1432 1433 1433 1433 1433 1435 1435 1431 1431 1429 1431 1432 1434 1438 1441 1443 1442 1443 1442 1442 1446 1450 1453 1457 1460 1464 1468 1472 1476 1478 1481 1483 1484 1485
1441 1437 1434 1430 1427 1424 1422 1421 1422 1422 1421 1422 1422 1424 1423 1424 1424 1423 1423 1423 1424 1425 1428 1432 1434 1436 1437 1438 1438 1442 1447 1450 1453 1457 1462 1464 1469 1472 1474 1476 1479 1481 1482
1430 1425 1419 1415 1412 1409 1407 1406 1407 1407 1408 1409 1411 1413 1413 1413 1415 1416 1417 1417 1416 1417 1416 1422 1422 1427 1431 1432 1434 1439 1443 1446 1451 1454 1458 1462 1466 1468 1472 1475 1476 1478 1480
1416 1408 1401 1396 1393 1390 1388 1388 1390 1393 1394 1396 1398 1400 1402 1404 1406 1409 1409 1409 1404 1399 1413 1414 1416 1421 1425 1428 1430 1435 1441 1445 1449 1453 1456 1460 1463 1465 1469 1472 1475 1477 1478
1396 1389 1384 1378 1373 1370 1369 1368 1370 1373 1378 1380 1385 1389 1393 1395 1397 1400 1402 1399 1405 1412 1415 1412 1415 1419 1421 1424 1427 1433 1438 1443 1445 1450 1454 1459 1463 1465 1469 1471 1470 1474 1475
1385 1376 1368 1361 1355 1351 1351 1352 1353 1357 1361 1366 1371 1379 1384 1387 1390 1393 1397 1397 1404 1411 1412 1412 1414 1416 1420 1425 1427 1431 1437 1443 1447 1451 1454 1456 1459 1464 1466 1468 1470 1473 1474